sat.trackr.live / text

‹ back to catalog

STARLINK-11163 [DTC]

NORAD 60047 · 2024-112K

PAYLOAD ACTIVE UNKNOWN

§ Identity

Operator
Country
US
Launch date
2024-06-08
Launch site
AFWTR
Launch vehicle
Mass (kg)
RCS (m²)

Purposes: comms

External: N2YO · Heavens-Above · Gunter

§ Orbital elements

Epoch: 2026-09-21T14:25:59.133504Z

Period
91.74 min
Inclination
53.1584°
Eccentricity
0.0001086
Mean motion
15.69700361 rev/d
Perigee alt
359.0 km
Apogee alt
360.5 km
Semi-major
6,737.9 km
B*
-5.1623e-6
RAAN
20.3140°
Arg perigee
63.4337°
Mean anomaly
296.6792°
Rev number
13,175

§ Raw data

STARLINK-11163 [DTC]1 60047U 24112K   26264.60137886 -.00001214  00000+0 -51623-5 0  99972 60047  53.1584  20.3140 0001086  63.4337 296.6792 15.69700361131752

JSON: /api/v1/satellites/60047 · /tle

For live sub-satellite position, see the globe view (requires WebGL).

§ Visibility from observer

Set your observer location to see the next 7 days of passes ≥ 10°. The values pass through the URL so the page stays shareable.

No JS? Fill the form by hand. The geolocation button needs JavaScript.